Flag for Ireland Weather past 2 weeks in Waterford, Ireland

Now
55 °F

Partly cloudy.


Feels Like: 52 °F
Forecast: 53 / 64 °F
Wind: 14 mph from Northwest

Location: Cork Airport

Current Time: Aug 2, 2014 at 12:28:19 AM

Latest Report: Aug 2, 2014 at 12:00 AM


Visibility: N/A

Pressure: 29.59 "Hg

Humidity: 94%

Dew point: 54 °F

Location of WaterfordLocation

Historic Weather in Waterford — Graph

°F

Waterford temperature yesterday

Maximum temperature yesterday: 64 °F (at 3:30 PM)
Minimum temperature yesterday: 55 °F (at 7:30 AM)
Average temperature yesterday: 59 °F

Past Weeks' High & Low Weather Summary

 TemperatureHumidityPressure
High75 °F (Jul 24, 1:00 PM)100% (Jul 18, 5:00 AM)30.24 "Hg (Jul 18, 5:00 AM)
Low54 °F (Jul 30, 5:30 AM)41% (Jul 27, 3:00 AM)29.62 "Hg (Aug 1, 5:00 PM)
Average63 °F85%30.01 "Hg
* Reported Jul 17 11:00 PM — Aug 1 11:00 PM, Waterford, Weather by CustomWeather, © 2014

Note: Actual official high and low records may vary slightly from our data, if they occured in-between our weather recording intervals... More about our weather records

Advertising

Waterford weather history for previous 24 hours

 ConditionsComfort  
Time TempWeatherWind HumidityBarometerVisibility
11:00 PM
Aug 1
57 °FPartly cloudy.12 mph100%29.62 "HgN/A
10:30 PM57 °FLight rain. Partly cloudy.7 mph100%29.62 "HgN/A
10:00 PM57 °FLight rain. Partly sunny.5 mph100%29.62 "HgN/A
9:30 PM57 °FLight rain. Partly sunny.6 mph100%29.62 "Hg6 mi
9:00 PM59 °FLight rain. Broken clouds.6 mph94%29.62 "HgN/A
8:30 PM59 °FLight rain. Broken clouds.7 mph94%29.62 "HgN/A
8:00 PM59 °FPartly sunny.6 mph94%29.62 "HgN/A
7:30 PM59 °FPartly sunny.7 mph94%29.62 "HgN/A
7:00 PM59 °FLight rain. Broken clouds.8 mph88%29.62 "HgN/A
6:30 PM59 °FSprinkles. Broken clouds.9 mph94%29.62 "HgN/A
6:00 PM61 °FSprinkles. Partly sunny.8 mph88%29.62 "Hg6 mi
5:30 PM63 °FScattered showers. Partly sunny.10 mph83%29.62 "HgN/A
5:00 PM63 °FScattered showers. Partly sunny.10 mph83%29.62 "HgN/A
4:30 PM63 °FScattered showers. Partly sunny.10 mph77%29.65 "HgN/A
4:00 PM63 °FPartly sunny.12 mph83%29.65 "HgN/A
3:30 PM64 °FBroken clouds.9 mph73%29.65 "HgN/A
3:00 PM63 °FPartly sunny.9 mph77%29.65 "HgN/A
2:30 PM63 °FPartly sunny.6 mph77%29.65 "HgN/A
2:00 PM63 °FPartly sunny.6 mph77%29.65 "HgN/A
1:30 PM63 °FPartly sunny.6 mph77%29.68 "HgN/A
1:00 PM61 °FPartly sunny.3 mph83%29.68 "HgN/A
12:30 PM61 °FBroken clouds.3 mph77%29.68 "HgN/A
12:00 PM61 °FPartly sunny.3 mph77%29.68 "HgN/A
11:30 AM61 °FBroken clouds.2 mph77%29.68 "HgN/A
11:00 AM59 °FBroken clouds.3 mph82%29.71 "HgN/A
10:30 AM59 °FBroken clouds.2 mph88%29.71 "HgN/A
10:00 AM57 °FBroken clouds.5 mph94%29.71 "HgN/A
9:30 AM57 °FBroken clouds.3 mph94%29.71 "HgN/A
9:00 AM57 °FPartly sunny.6 mph94%29.71 "HgN/A
8:30 AM57 °FPartly sunny.5 mph94%29.71 "HgN/A
8:00 AM57 °FPartly sunny.5 mph94%29.71 "HgN/A
7:30 AM55 °FPartly sunny.5 mph100%29.71 "HgN/A
7:00 AM57 °FPartly sunny.7 mph94%29.71 "HgN/A
6:30 AM57 °FPassing clouds.8 mph94%29.71 "HgN/A
6:00 AM57 °FPassing clouds.7 mph94%29.71 "HgN/A
5:30 AM57 °FPartly cloudy.7 mph100%29.71 "Hg6 mi
5:00 AM57 °FLight rain. Low clouds.7 mph100%29.71 "Hg3 mi
4:30 AM57 °FLight rain. Partly cloudy.7 mph100%29.71 "Hg2 mi
4:00 AM57 °FLight rain. Mostly cloudy.6 mph100%29.74 "Hg2 mi
3:30 AM57 °FRain. Passing clouds.8 mph100%29.74 "Hg2 mi
3:00 AM57 °FRain. Mostly cloudy.10 mph100%29.74 "Hg1 mi
2:30 AM57 °FRain. Passing clouds.7 mph100%29.77 "Hg2 mi
2:00 AM57 °FRain. Mostly cloudy.9 mph100%29.77 "Hg2 mi
1:30 AM57 °FLight rain. Low clouds.5 mph100%29.80 "Hg2 mi
1:00 AM57 °FLight rain. Overcast.5 mph100%29.80 "Hg2 mi
12:30 AM57 °FSprinkles. Overcast.6 mph94%29.80 "Hg6 mi
12:00 AM57 °FPassing clouds.6 mph94%29.83 "HgN/A
Weather by CustomWeather, © 2014

See weather overviewHow to use our weather pages